Regional Weather Roundup
Issued by NWS

Home | Current Version | Previous Version | Graphics & Text | Print | Product List | Glossary On
Versions: 1 2 3 4 5 6 7 8 9 10 11 12 13 14 15 16 17 18 19 20 21 22 23 24 25 26 27 28 29 30 31 32 33 34 35 36 37 38 39 40 41 42 43 44 45 46 47 48 49 50
000
ASUS43 KLMK 251010
RWRKY
KENTUCKY REGIONAL WEATHER ROUNDUP
NATIONAL WEATHER SERVICE LOUISVILLE KY
500 AM EST THU DEC 25 2014

NOTE "FAIR" INDICATES FEW OR NO CLOUDS BELOW 12,000 FEET
WITH NO SIGNIFICANT WEATHER AND/OR OBSTRUCTIONS TO VISIBILITY.

KYZ001>023-026-027-061>063-070>075-251100-
WESTERN AND SOUTH CENTRAL KENTUCKY

CITY           SKY/WX    TMP DP  RH WIND       PRES   REMARKS
PADUCAH        CLOUDY    40  32  73 W8        30.01R WCI  34
HENDERSON      CLOUDY    39  32  75 W8        29.99R WCI  34
OWENSBORO      MOCLDY    39  35  85 W9        30.00R WCI  33
HOPKINSVILLE   CLOUDY    39  36  87 SW9       30.02R WCI  33
BOWLING GREEN  CLOUDY    41  34  76 W5        30.02R
GLASGOW        LGT RAIN  38  35  87 W7        30.00R WCI  33
$$

KYZ024-025-028>034-038-045-046-053-251100-
NORTH CENTRAL KENTUCKY

CITY           SKY/WX    TMP DP  RH WIND       PRES   REMARKS
LOUISVILLE/SDF DRIZZLE   39  34  82 W15       29.96R WCI  31
LOUISVILLE/LOU LGT RAIN  39  34  82 SW12      29.96R WCI  32
FORT KNOX      CLOUDY    38  33  82 W12G23    29.96R WCI  30
$$

KYZ035>037-039>044-047>052-055>060-089>105-251100-
NORTHEAST KENTUCKY

CITY           SKY/WX    TMP DP  RH WIND       PRES   REMARKS
LEXINGTON      CLOUDY    38  34  85 W10       29.94R WCI  31
COVINGTON      CLOUDY    38  31  76 W12       29.88R WCI  30
FRANKFORT      CLOUDY    38  33  82 SW9       29.93R WCI  31
$$

KYZ054-064>069-076>088-106>120-251100-
SOUTHEAST KENTUCKY

CITY           SKY/WX    TMP DP  RH WIND       PRES   REMARKS
JACKSON        CLOUDY    39  32  76 VRB5      29.92R
LONDON         CLOUDY    40  32  73 SW6       29.96R
SOMERSET       CLOUDY    37  32  81 W8        29.99R WCI  31
MIDDLESBORO    NOT AVBL
MONTICELLO     CLOUDY    40  36  86 SW9       30.01R WCI  34
$$




USA.gov is the U.S. government's official web portal to all federal, state and local government web resources and services.